Back to catalog

N-1 DEB

AliveLEO
NORAD 13510·DEBRIS·🇯🇵 Japan

Launched Sep 3, 1982 from Tanegashima Space Center

Loading…

Next Passes (next 24 hours)

TLE

FreshSource: Space-Track

Epoch: Sep 14, 2026, 02:39 UTC

1 13510U 82087C   26257.11089253  .00000592  00000-0  87595-3 0  9999
2 13510  44.5744 266.3889 0158013 104.4402 304.8703 13.59424321623375

Track N-1 DEB in real time with AllMySat

Download on the App Store